This demonstration page uses our WeatherBlox Daily Observations layout. Learn more.

40.92945, -100.16068

Hourly Observations for April 22, 2018

Temp ( °F °C ) Dew Point ( °F °C ) Humidity (%) Winds ( mph kmh ) Pressure ( in mb ) Visibility ( mi km ) Precip ( " mm )
12:15 am 00:15 Cloudy 42 5.3 39 4.1 92 92 Calm 30.33 1027 7 11.26538 0 0
12:35 am 00:35 Cloudy 42 5.3 39 4.1 92 92 Calm 30.33 1027 7 11.26538 0 0
12:55 am 00:55 Cloudy 42 5.3 39 4.1 92 92 Calm 30.33 1027 7 11.26538 0 0
1:15 am 01:15 Cloudy 42 5.3 39 4 91 91 ENE 3 6 30.33 1027 10 16.0934 0 0
1:35 am 01:35 Cloudy 42 5.5 38 3.3 86 86 E 7 11 30.3 1026 10 16.0934 0 0
1:55 am 01:55 Cloudy 41 5.1 37 3 86 86 E 6 9 30.3 1026 10 16.0934 0 0
2:15 am 02:15 Cloudy 41 5 37 2.9 86 86 ENE 6 9 30.3 1026 10 16.0934 0 0
2:35 am 02:35 Cloudy 41 4.8 37 3 88 88 ENE 3 6 30.3 1026 10 16.0934 0 0
2:55 am 02:55 Cloudy 41 4.8 38 3.1 89 89 Calm 30.3 1026 10 16.0934 0 0
3:15 am 03:15 Cloudy 40 4.7 37 3 89 89 Calm 30.27 1025 10 16.0934 0 0
3:35 am 03:35 Cloudy 40 4.6 38 3.1 90 90 Calm 30.27 1025 10 16.0934 0 0
3:55 am 03:55 Cloudy 40 4.6 37 3 89 89 Calm 30.27 1025 10 16.0934 0 0
4:15 am 04:15 Cloudy 40 4.5 37 3 90 90 ENE 3 6 30.27 1025 7 11.26538 0 0
4:35 am 04:35 Partly Cloudy 40 4.3 37 2.8 90 90 ENE 5 7 30.27 1025 7 11.26538 0 0
4:55 am 04:55 Partly Cloudy 39 3.8 37 2.6 92 92 E 6 9 30.27 1025 7 11.26538 0 0
5:15 am 05:15 Partly Cloudy 39 3.8 37 2.6 92 92 ENE 5 7 30.27 1025 7 11.26538 0 0
5:35 am 05:35 Clear with Mist and Fog 38 3.3 36 2.2 93 93 Calm 30.27 1025 5 8.0467 0 0
5:55 am 05:55 Partly Cloudy with Mist and Fog 37 2.5 35 1.5 93 93 NNW 5 7 30.27 1025 4 6.43736 0 0
6:15 am 06:15 Mostly Cloudy with Mist and Fog 37 2.6 35 1.7 94 94 NW 3 6 30.27 1025 4 6.43736 0 0
6:35 am 06:35 Mostly Cloudy with Mist and Fog 37 2.5 35 1.5 93 93 NW 7 11 30.27 1025 3 4.82802 0 0
6:55 am 06:55 Mostly Cloudy with Mist and Fog 37 2.8 36 2 95 95 WNW 7 11 30.3 1026 2.5 4.02335 0 0
7:15 am 07:15 Cloudy with Mist and Fog 38 3.2 37 2.5 95 95 NW 7 11 30.3 1026 3 4.82802 0 0
7:35 am 07:35 Cloudy with Mist and Fog 38 3.6 37 2.7 94 94 NW 6 9 30.3 1026 4 6.43736 0 0
7:55 am 07:55 Cloudy with Mist and Fog 39 4 37 3 93 93 NNW 5 7 30.3 1026 4 6.43736 0 0
8:15 am 08:15 Cloudy with Mist and Fog 40 4.2 38 3.1 93 93 NNW 3 6 30.3 1026 4 6.43736 0 0
8:35 am 08:35 Cloudy with Mist and Fog 41 4.8 38 3.5 91 91 NNW 5 7 30.3 1026 5 8.0467 0 0
8:55 am 08:55 Cloudy 42 5.3 38 3.6 89 89 N 5 7 30.3 1026 7 11.26538 0 0
9:15 am 09:15 Cloudy 42 5.6 39 3.8 88 88 Calm 30.33 1027 7 11.26538 0 0
9:35 am 09:35 Cloudy 43 6.1 39 3.9 86 86 NNE 3 6 30.3 1026 10 16.0934 0 0
9:55 am 09:55 Cloudy 44 6.4 39 3.9 84 84 NNE 6 9 30.3 1026 10 16.0934 0 0
10:15 am 10:15 Cloudy 46 7.5 39 4 79 79 NNE 6 9 30.3 1026 10 16.0934 0 0
10:35 am 10:35 Partly Cloudy 46 7.8 39 4 77 77 ENE 5 7 30.3 1026 10 16.0934 0 0
10:55 am 10:55 Partly Cloudy 47 8.5 40 4.7 77 77 NE 6 9 30.3 1026 10 16.0934 0 0
11:15 am 11:15 Sunny 49 9.6 41 4.8 72 72 ENE 7 11 30.24 1024 10 16.0934 0 0
11:35 am 11:35 Sunny 50 10 40 4.6 69 69 NE 5 7 30.24 1024 10 16.0934 0 0
11:55 am 11:55 Partly Cloudy 51 10.8 41 4.9 67 67 ENE 6 9 30.24 1024 10 16.0934 0 0
12:15 pm 12:15 Partly Cloudy 51 10.8 40 4.2 64 64 E 3 6 30.24 1024 10 16.0934 0 0
12:35 pm 12:35 Partly Cloudy 52 11.1 39 4 62 62 ESE 6 9 30.24 1024 10 16.0934 0 0
12:55 pm 12:55 Partly Cloudy 53 11.5 39 4 60 60 SE 3 6 30.24 1024 10 16.0934 0 0
1:15 pm 13:15 Mostly Cloudy 53 11.5 39 3.7 59 59 Calm 30.24 1024 10 16.0934 0 0
1:35 pm 13:35 Mostly Cloudy 55 12.7 40 4.5 58 58 Calm 30.21 1023 10 16.0934 0 0
1:55 pm 13:55 Mostly Cloudy 55 12.6 40 4.5 58 58 N 3 6 30.18 1022 10 16.0934 0 0
2:15 pm 14:15 Mostly Cloudy 56 13.4 39 4.1 54 54 SE 6 9 30.18 1022 10 16.0934 0 0
2:35 pm 14:35 Partly Cloudy 57 13.9 40 4.7 54 54 E 7 11 30.18 1022 10 16.0934 0 0
2:55 pm 14:55 Mostly Cloudy 57 14 40 4.5 53 53 ESE 7 11 30.18 1022 10 16.0934 0 0
3:15 pm 15:15 Mostly Cloudy 58 14.2 40 4.2 51 51 E 8 13 30.18 1022 10 16.0934 0 0
3:35 pm 15:35 Partly Cloudy 58 14.5 41 4.8 52 52 SE 3 6 30.15 1021 10 16.0934 0 0
3:55 pm 15:55 Partly Cloudy 59 15.1 39 4 48 48 S 5 7 30.12 1020 10 16.0934 0 0
4:15 pm 16:15 Partly Cloudy 58 14.6 38 3.5 48 48 ENE 6 9 30.15 1021 10 16.0934 0 0
4:35 pm 16:35 Partly Cloudy 60 15.3 38 3.6 46 46 Calm 30.12 1020 10 16.0934 0 0
4:55 pm 16:55 Partly Cloudy 60 15.5 38 3.6 45 45 Calm 30.12 1020 10 16.0934 0 0
5:15 pm 17:15 Mostly Cloudy 59 15.2 38 3.5 46 46 E 6 9 30.12 1020 10 16.0934 0 0
5:35 pm 17:35 Partly Cloudy 59 15.2 37 3 44 44 SSE 3 6 30.12 1020 10 16.0934 0 0
5:55 pm 17:55 Cloudy 60 15.5 38 3.5 45 45 SSW 5 7 30.09 1019 10 16.0934 0 0
6:15 pm 18:15 Mostly Cloudy 59 15.2 39 4.1 48 48 E 6 9 30.09 1019 10 16.0934 0 0
6:35 pm 18:35 Cloudy 59 15.1 38 3.3 45 45 Calm 30.12 1020 10 16.0934 0 0
6:55 pm 18:55 Partly Cloudy 58 14.7 38 3.1 46 46 Calm 30.09 1019 10 16.0934 0 0
7:15 pm 19:15 Sunny 57 14.1 40 4.5 53 53 Calm 30.12 1020 10 16.0934 0 0
7:35 pm 19:35 Sunny 57 14.1 38 3.4 49 49 Calm 30.12 1020 10 16.0934 0 0
7:55 pm 19:55 Partly Cloudy 58 14.2 38 3.1 47 47 Calm 30.12 1020 10 16.0934 0 0
8:15 pm 20:15 Partly Cloudy 56 13.1 42 5.8 61 61 Calm 30.12 1020 10 16.0934 0 0
8:35 pm 20:35 Clear 55 12.8 40 4.4 57 57 Calm 30.12 1020 10 16.0934 0 0
8:55 pm 20:55 Clear 52 11 42 5.3 68 68 Calm 30.15 1021 10 16.0934 0 0
9:15 pm 21:15 Clear 49 9.3 40 4.5 72 72 Calm 30.18 1022 10 16.0934 0 0
9:35 pm 21:35 Clear 48 9 41 5.1 77 77 Calm 30.18 1022 10 16.0934 0 0
9:55 pm 21:55 Clear 47 8.3 41 5.2 81 81 Calm 30.18 1022 10 16.0934 0 0
10:15 pm 22:15 Clear 46 7.6 40 4.3 80 80 N 5 7 30.21 1023 10 16.0934 0 0
10:35 pm 22:35 Clear 45 7.1 39 4 81 81 NW 3 6 30.21 1023 10 16.0934 0 0
10:55 pm 22:55 Clear 45 7.1 40 4.3 83 83 Calm 30.21 1023 10 16.0934 0 0
11:15 pm 23:15 Clear 44 6.6 39 4 84 84 Calm 30.21 1023 10 16.0934 0 0
11:35 pm 23:35 Clear 42 5.7 38 3.1 84 84 Calm 30.21 1023 10 16.0934 0 0
11:55 pm 23:55 Clear 42 5.6 37 2.8 82 82 W 3 6 30.21 1023 10 16.0934 0 0

Powered by AerisWeather